SCP
8 10 12 13 12 9 7 6 7 8 9 8 6 5 5 5 4 4 3 2 2 2 2 3 3 3 3 3 2 2 2 2 2 2 2 3 3 3 2 2 1 1 1
7 8 10 13 14 12 9 7 7 8 9 9 7 6 5 5 4 3 3 2 2 2 2 3 3 3 4 4 3 3 3 3 3 3 3 3 4 3 3 2 2 1 1
5 6 7 10 12 13 12 10 8 8 9 10 9 7 6 5 4 3 2 2 2 2 3 3 4 4 4 4 4 4 4 4 4 4 3 3 4 4 3 3 2 1 1
5 5 6 7 8 11 13 12 10 8 8 9 10 8 7 5 4 3 3 2 2 2 2 3 3 3 4 4 4 4 4 4 4 4 3 3 3 3 3 3 2 2 1
5 5 5 5 6 8 10 13 12 10 8 8 9 9 8 6 5 3 3 3 3 3 2 2 2 2 3 3 3 3 4 4 4 4 4 3 2 2 2 2 2 2 1
5 5 5 5 5 5 7 10 12 12 10 8 8 8 8 6 4 3 2 3 3 3 3 2 2 1 1 2 2 2 2 3 4 5 5 4 3 2 2 1 1 1 1
6 5 5 4 4 4 4 6 9 12 12 10 8 7 7 6 4 2 1 3 3 3 3 2 2 1 1 1 1 2 2 2 3 4 5 5 4 3 2 2 1 1 1
6 6 5 4 4 3 3 4 7 10 13 12 10 8 7 6 3 1 1 2 3 3 3 3 2 2 1 1 1 2 3 3 2 2 4 4 4 3 3 2 2 1 1
6 6 5 4 3 3 3 3 5 8 12 13 12 10 8 6 3 1 1 2 3 3 3 3 2 2 1 1 1 2 4 4 3 2 2 2 2 2 2 2 2 1 1
6 6 5 4 3 3 3 3 4 6 10 13 13 11 9 6 3 1 0 2 3 3 3 3 2 1 0 0 0 1 2 4 4 3 2 1 1 1 1 1 1 1 1
6 6 5 4 3 3 3 4 4 5 8 11 12 12 9 6 3 1 0 1 2 3 3 3 2 1 0 0 0 1 1 2 3 4 3 2 1 1 1 1 1 1 1
6 6 4 3 2 3 3 3 3 4 6 9 11 10 8 6 3 1 0 1 1 3 3 3 2 1 0 0 0 0 0 1 2 3 3 2 2 1 1 1 1 1 1
6 5 4 3 2 3 3 3 3 3 5 7 8 8 6 4 2 1 0 0 1 2 2 2 1 0 0 0 0 0 0 0 1 2 2 2 2 2 1 1 1 1 1
5 4 3 3 3 3 3 3 3 4 5 6 6 6 5 3 2 1 0 0 0 1 1 1 0 0 0 0 0 0 0 1 1 2 2 1 1 1 1 1 1 1 1
4 3 2 2 2 3 3 3 3 4 5 5 4 4 3 3 2 1 1 0 0 0 0 0 0 0 0 0 0 0 0 1 1 2 2 1 1 1 1 1 1 1 1
3 2 2 2 2 2 2 2 2 2 2 2 2 2 2 1 1 1 1 0 0 0 0 1 1 0 0 0 0 0 0 1 1 2 1 1 1 0 1 1 1 1 1
2 2 2 1 2 2 1 1 1 1 0 1 1 0 0 0 0 0 0 0 0 0 1 1 2 1 1 1 0 0 0 1 1 1 1 1 0 0 0 1 1 1 1
2 2 1 1 1 1 1 1 1 0 0 0 0 0 0 0 0 0 0 0 0 0 1 1 2 2 2 1 1 1 1 1 1 1 1 1 1 0 0 0 1 1 1
2 1 1 1 1 1 1 1 1 0 0 0 0 0 0 0 0 0 0 1 1 1 1 1 2 2 2 2 2 1 1 1 1 1 1 1 1 1 0 0 1 1 1
1 1 1 1 1 1 1 1 0 0 0 0 1 0 0 0 0 0 0 1 2 2 1 1 2 2 3 3 2 1 1 1 1 1 1 1 1 1 0 0 0 0 0
1 0 0 1 1 1 1 0 0 0 0 0 1 0 1 1 0 0 1 1 2 2 2 2 2 3 3 3 2 1 1 1 1 1 1 1 1 1 0 0 0 0 0
0 0 0 1 1 1 0 0 0 0 0 0 0 0 0 0 1 1 1 2 3 3 3 2 2 2 2 2 2 1 1 1 1 1 1 1 0 0 0 0 0 0 0
0 0 0 1 1 0 0 0 0 0 0 0 0 0 0 0 0 1 1 2 3 4 3 2 1 1 1 2 1 1 1 0 0 0 0 0 0 0 0 0 0 0 0
0 0 0 0 0 0 0 0 0 0 0 0 0 0 0 0 0 0 1 2 3 4 4 2 2 1 1 1 1 0 0 0 0 0 0 0 0 0 0 0 0 0 0
0 0 0 0 0 0 0 0 0 0 0 0 0 0 0 0 0 0 0 1 3 4 4 3 2 2 2 1 1 0 0 0 0 0 0 0 0 0 0 0 0 0 0
0 0 0 0 0 0 0 0 0 0 0 0 0 0 0 0 0 0 0 1 2 3 4 3 2 2 2 2 1 0 0 0 0 0 0 0 0 0 0 0 0 0 0
Wind_Speed
3 2 2 2 2 1 1 1 1 1 1 1 2 2 2 2 2 2 2 2 2 3 3 2 2 2 1 2 1 1 1 1 1 1 1 2 3 3 3 3 4 4 5
2 2 2 2 2 1 1 2 1 1 1 1 1 1 2 2 2 2 2 2 2 2 2 2 2 2 2 2 1 1 1 1 2 2 1 1 2 3 4 4 3 4 3
2 2 2 2 2 2 2 2 2 1 1 1 1 1 2 1 1 1 2 2 2 2 2 1 1 1 2 1 0 0 0 0 1 2 2 1 1 3 3 2 2 2 2
1 2 2 2 2 2 2 2 2 2 2 1 1 1 1 1 1 1 1 2 2 1 1 1 1 1 0 0 1 0 0 0 1 1 1 1 1 2 3 2 1 1 1
1 1 1 1 2 2 2 2 2 2 2 1 1 1 1 1 1 1 2 2 2 2 1 1 2 2 3 2 1 1 1 0 0 1 1 1 1 1 2 1 2 1 1
1 1 1 1 1 2 2 2 2 2 2 2 2 2 1 1 1 1 1 1 1 1 1 2 2 3 4 4 4 3 1 1 1 1 1 1 2 2 2 2 2 1 1
1 1 2 2 2 2 2 2 2 2 2 2 2 1 1 0 1 0 1 1 1 1 1 1 1 2 3 2 3 2 1 1 1 1 1 1 1 1 2 1 1 1 1
1 2 2 2 2 2 1 1 1 1 1 1 1 1 1 1 1 1 1 2 1 1 2 2 2 1 1 1 2 2 1 1 1 1 1 0 0 1 1 1 1 1 1
2 2 2 2 2 2 2 1 1 2 2 2 2 2 2 1 1 2 1 2 2 2 2 2 2 2 3 2 2 2 1 0 1 2 1 1 1 0 1 1 1 1 2
2 2 2 2 2 2 2 2 2 2 2 2 3 2 2 2 3 3 3 2 2 2 2 3 3 2 4 2 2 2 1 1 1 1 1 1 2 2 3 2 2 2 2
2 2 2 2 2 2 1 2 2 3 3 3 3 3 3 3 4 4 4 2 2 2 2 2 3 4 4 3 2 2 2 1 1 2 1 1 1 1 2 2 2 2 2
2 2 2 2 3 2 2 3 3 4 3 3 3 3 3 3 3 4 5 4 3 1 1 2 3 5 4 4 3 3 3 2 1 2 2 2 1 1 2 2 2 2 2
2 2 3 3 2 2 2 3 4 4 3 3 3 3 2 2 3 4 5 5 4 2 1 2 4 5 4 3 4 4 2 2 2 2 1 1 1 1 1 1 1 1 2
2 3 3 2 2 1 2 2 2 2 2 3 3 2 2 2 2 2 3 3 4 3 1 2 5 6 5 4 3 4 3 3 3 2 2 1 1 1 2 2 1 1 1
3 3 3 3 2 1 2 2 2 1 2 2 2 1 2 2 3 5 3 3 2 2 1 2 3 3 4 4 3 3 3 3 3 2 2 2 1 1 2 1 1 2 2
3 3 3 3 2 2 2 1 2 1 1 1 2 1 1 3 5 5 5 4 4 3 2 2 2 3 3 3 3 2 2 2 2 2 2 2 2 2 2 1 1 2 2
3 3 3 3 2 2 2 2 1 1 1 1 2 3 4 4 5 5 5 4 4 4 3 3 2 2 2 2 2 2 2 2 2 2 2 1 2 2 2 1 1 1 2
3 3 3 3 3 3 3 3 3 3 2 2 2 5 6 6 6 5 5 4 3 4 4 4 3 2 2 2 2 2 2 2 1 1 1 1 1 1 1 1 1 1 2
3 3 2 3 3 3 3 3 3 3 3 3 3 3 5 5 4 4 5 4 4 4 4 3 3 3 2 2 1 1 1 1 1 1 1 1 1 1 1 2 2 2 2
3 4 4 4 4 3 3 3 3 3 3 3 3 3 4 5 4 4 5 5 4 4 3 3 2 2 2 2 1 1 1 1 1 1 1 1 1 1 2 2 2 2 2
3 3 4 5 4 3 3 3 3 3 3 3 2 3 5 4 4 4 4 5 4 4 3 3 2 2 1 1 1 1 1 1 1 1 1 1 1 1 2 2 2 2 2
4 4 3 4 3 3 3 3 3 3 3 3 2 2 5 4 3 3 3 3 3 2 2 2 2 2 1 1 1 1 1 1 0 0 1 1 1 2 2 2 2 2 2
4 4 4 3 3 2 4 4 3 2 2 2 1 1 2 2 1 2 2 2 2 1 1 1 1 1 1 1 1 2 1 0 0 1 1 2 2 2 2 3 3 3 2
4 3 3 2 2 2 3 3 2 2 1 1 1 1 1 1 1 1 0 0 1 1 1 0 1 0 1 1 1 2 2 1 0 0 1 2 3 3 3 3 3 3 2
4 3 2 2 2 2 2 2 2 2 1 1 1 1 1 1 1 1 1 1 0 1 1 1 0 0 1 2 2 2 2 2 1 0 1 2 3 4 3 3 2 2 2
4 2 2 1 1 2 1 1 2 2 2 1 1 1 1 1 1 1 1 0 0 1 1 1 1 2 1 2 2 3 2 2 1 1 2 2 3 3 3 2 3 2 2
Wind_Direction
162 170 164 171 194 193 195 225 236 253 267 264 258 246 248 248 250 234 237 226 230 231 234 222 219 242 254 264 248 220 206 164 185 234 199 143 146 157 156 168 161 167 174
154 158 162 165 180 204 208 224 226 235 242 248 260 263 267 262 254 242 246 242 234 235 239 232 225 225 240 281 274 235 196 176 174 191 194 175 168 165 161 173 179 176 165
144 147 160 180 177 195 222 233 229 214 227 238 240 243 266 285 282 257 237 249 243 245 234 229 232 226 237 252 275 260 241 183 156 169 190 186 182 173 158 171 166 159 187
141 157 158 179 203 213 218 224 225 220 217 234 248 255 260 260 279 273 250 244 236 233 228 213 195 170 190 220 216 335 324 122 144 152 179 200 197 172 154 159 150 159 179
189 181 180 201 210 216 220 225 228 226 223 226 240 238 246 240 263 262 244 236 234 216 186 144 130 112 92 81 73 61 20 25 182 172 192 191 174 154 166 168 159 157 179
255 233 229 231 237 232 213 216 235 233 226 219 226 236 233 254 311 324 272 246 228 204 190 164 164 137 118 99 82 76 64 230 218 182 217 208 190 183 167 177 167 180 210
274 265 244 244 247 258 250 224 229 233 228 226 227 222 198 285 323 252 268 230 159 155 139 142 169 122 119 122 114 108 64 341 216 202 207 238 209 194 164 175 190 207 221
246 260 264 252 253 263 266 240 212 213 229 220 228 225 185 241 256 236 260 199 173 181 157 145 133 117 102 103 123 120 97 13 267 188 193 258 9 70 141 184 194 204 257
253 261 266 274 264 254 255 257 236 214 215 213 217 207 189 195 196 191 181 205 180 170 154 140 142 141 103 101 132 123 118 65 27 72 93 140 150 84 150 140 189 202 255
288 285 290 289 285 264 251 248 248 236 218 211 217 209 191 188 193 196 197 214 193 176 165 150 130 137 140 139 167 163 179 182 92 70 46 253 231 230 227 210 219 232 250
283 284 296 298 276 267 247 232 236 246 234 217 212 207 192 193 180 184 190 216 220 186 176 163 156 159 160 175 203 198 212 229 208 199 204 221 226 224 219 218 224 227 244
284 286 289 280 268 254 242 233 230 234 229 224 219 217 199 188 177 185 192 206 228 206 186 155 148 164 175 192 202 209 222 232 227 217 208 208 208 221 218 211 210 209 213
277 284 276 274 271 245 252 245 238 227 223 224 223 221 198 170 160 179 196 205 216 208 171 148 166 187 201 208 213 215 217 223 228 227 221 230 227 212 186 185 190 196 219
258 276 274 262 251 244 264 257 258 253 244 238 229 222 191 162 159 177 199 193 195 195 195 174 182 197 214 226 212 208 212 221 218 219 225 231 216 203 199 196 201 211 228
242 250 260 249 240 244 256 279 256 246 240 250 264 240 196 188 186 179 183 191 202 184 166 185 192 185 192 203 207 210 208 208 218 213 215 221 222 214 215 210 207 214 222
236 242 252 253 232 226 227 260 11 267 183 181 209 238 221 174 165 169 179 184 192 171 169 206 201 197 201 199 196 197 202 202 210 214 213 210 217 231 234 223 220 233 237
249 253 253 253 241 233 228 236 236 272 283 261 213 208 201 184 179 181 186 190 198 180 199 217 208 206 213 215 210 200 197 194 195 205 213 217 217 226 228 235 241 238 249
253 250 255 258 249 242 233 232 236 223 214 231 229 207 194 190 187 186 169 149 192 201 214 219 213 208 213 220 220 215 197 187 186 205 226 237 241 250 251 247 247 256 261
275 266 258 267 260 250 245 240 240 236 224 216 201 187 196 187 184 185 168 196 213 210 216 227 228 219 212 210 214 211 202 187 177 188 227 249 257 259 271 277 267 260 265
280 286 287 271 262 255 248 249 248 250 237 222 217 187 165 174 188 185 195 216 217 215 222 226 233 237 218 201 194 202 202 177 171 184 232 256 262 268 268 271 274 269 258
285 270 260 264 258 260 259 255 257 260 254 236 230 194 174 189 199 193 192 204 209 213 213 218 222 230 219 198 192 194 189 184 165 189 241 259 267 281 281 276 279 282 284
300 298 282 280 282 284 288 278 266 258 264 257 229 199 192 207 199 187 193 200 206 211 208 208 224 223 204 197 181 169 164 130 83 274 272 277 282 281 286 284 279 277 281
289 290 291 289 284 277 273 273 270 269 269 284 266 199 194 222 201 195 204 198 185 189 206 213 224 214 128 145 149 130 124 119 276 304 303 293 288 282 281 283 282 285 289
277 283 294 291 279 266 271 285 287 286 289 299 280 219 213 202 170 146 171 227 156 166 160 211 261 219 115 109 111 112 101 89 321 265 286 279 282 291 293 295 296 301 308
278 278 286 294 300 277 273 292 299 308 324 327 293 211 205 190 167 131 94 49 80 131 136 153 142 106 76 81 91 99 116 123 123 263 263 269 274 279 286 292 301 312 317
273 282 290 306 311 302 297 290 297 311 329 329 330 310 253 170 129 123 112 128 156 141 156 170 139 119 104 130 122 120 132 141 159 231 256 258 269 278 286 288 297 299 300